Погода в Ивакуни

Япония     34°09′45″N   132°13′10″E
темп.,
°C
ветер,
м/с
пор.,
м/с
влажн.,
%
обл.,
%
осадки,
мм/ч
давл.,
гПа
погр.,
м
18 сентября, сб
сб1800:00+23св71293100 31.4 1001893
03:00+23сз359193 32.6 1004163
06:00+23зсз2392100 0.2 100772
09:00+24сз258492 0.4 1009622
12:00+24ссз367061 0.1 10101054
15:00+25с456650 0.1 10111058
18:00+22с127647 0.0 1012219
21:00+21ссз24797 0.1 1013197
19 сентября, вс
вс1900:00+19ссз22853 0.0 1013110
03:00+19ссз228524 0.0 101396
06:00+20с238384 0.0 1014101
09:00+24св35700 0.0 1014687
12:00+26всв246120 0.0 10131045
15:00+26всв34631 0.0 1012681
18:00+23ю11790 0.0 101349
21:00+21с33820 0.0 101486
20 сентября, пн
пн2000:00+20с34811 0.0 1014147
03:00+20ссв33809 0.0 1014132
06:00+19ссв22829 0.0 1014140
09:00+22всв12710 0.0 1015395
12:00+24юв21680 0.0 1014461
15:00+24ююв226923 0.0 1013415
18:00+22ююз1183100 0.0 101385
21:00+22зсз118241 0.1 101456
21 сентября, вт
вт2100:00+21зсз118719 0.0 101374
03:00+21ссз118816 0.0 101276
06:00+22в018799 0.0 1012199
09:00+22юв2387100 0.1 1012421
12:00+24вюв258197 0.1 1011579
15:00+24ююв038062 0.1 1010321
18:00+23ссз1185100 0.4 100931
21:00+23зюз1191100 1.8 101043
22 сентября, ср
ср2200:00+22ююз3696100 7.6 1010316
03:00+22з129378 9.3 100993
06:00+22з1292100 0.8 101058
09:00+24ююз23825 1.3 1011484
12:00+27ююз356048 0.1 10101005
15:00+28зюз46560 0.1 10091034
18:00+23зюз34740 0.0 101155
21:00+20з33770 0.1 101264